Date_and_time,latitude,longitude,wind_speed,RelWindDirFrom,WindDirFrom,air_pressure,air_temperature,relative_humidity,Temp,platform_speed_wrt_ground,air_pressure_at_mean_sea_level,platform_orientation
2019-03-14 23:30,50.630445,-96.980765,14.7,23.2,336,984.49,-1.5,68,0.82,0.0,1012.38,143.4
2019-03-14 23:40,50.630445,-96.9807666666667,16.1,22.5,337,984.55,-1.6,68,0.82,0.0,1012.44,143.4
2019-03-14 23:50,50.630445,-96.9807666666667,13.4,19.0,332,984.72,-1.5,67,0.82,0.0,1012.62,143.4
2019-03-15 00:00,50.6304466666667,-96.980765,12.7,19.0,323,984.91,-1.2,66,0.82,0.0,1012.80,360.0
2019-03-15 00:10,50.6304466666667,-96.980765,16.0,23.2,326,984.85,-1.3,65,0.82,0.0,1012.75,360.0
2019-03-15 00:20,50.6304466666667,-96.980765,14.4,22.5,327,984.97,-1.4,65,0.82,0.0,1012.89,360.0
2019-03-15 00:30,50.6304483333333,-96.980765,15.4,23.7,326,984.96,-1.6,65,0.82,0.0,1012.90,360.0
2019-03-15 00:40,50.6304483333333,-96.980765,11.2,19.1,324,985.33,-1.8,66,0.82,0.0,1013.29,360.0
2019-03-15 00:50,50.6304483333333,-96.980765,11.9,18.2,319,985.35,-1.9,67,0.82,0.0,1013.31,360.0
2019-03-15 01:00,50.6304466666667,-96.9807566666667,9.5,14.6,321,985.60,-2.0,69,0.81,0.0,1013.58,90.0
2019-03-15 01:10,50.6304516666667,-96.9807616666667,9.4,14.1,320,985.69,-2.1,69,0.81,0.0,1013.68,90.0
2019-03-15 01:20,50.630455,-96.9807666666667,9.7,14.7,322,985.77,-2.1,69,0.81,0.0,1013.76,90.0
2019-03-15 01:30,50.6304416666667,-96.9807516666667,9.3,13.3,320,985.95,-2.2,69,0.81,0.0,1013.95,90.0
2019-03-15 01:40,50.6304466666667,-96.980765,9.1,14.0,325,986.07,-2.3,69,0.80,0.0,1014.08,90.0
2019-03-15 01:50,50.63045,-96.9807616666667,9.3,14.0,319,986.14,-2.4,68,0.80,0.0,1014.14,90.0
2019-03-15 02:00,50.6304483333333,-96.9807633333333,8.1,11.6,323,986.26,-2.5,68,0.81,0.0,1014.27,347.4
2019-03-15 02:10,50.6304483333333,-96.980765,8.0,10.9,316,986.37,-2.6,68,0.81,0.0,1014.41,347.4
2019-03-15 02:20,50.6304516666667,-96.9807666666667,6.7,10.4,316,986.47,-2.8,68,0.81,0.0,1014.52,347.4
2019-03-15 02:30,50.6304516666667,-96.9807683333333,7.2,10.3,318,986.58,-2.9,68,0.81,0.0,1014.65,347.4
2019-03-15 02:40,50.6304616666667,-96.9807716666667,7.4,10.2,315,986.70,-3.0,68,0.80,0.0,1014.78,347.4
2019-03-15 02:50,50.6304566666667,-96.98076,7.3,10.2,315,986.78,-3.1,68,0.80,0.0,1014.87,347.4
2019-03-15 03:00,50.630455,-96.9807583333333,7.0,9.6,311,986.89,-3.2,68,0.80,0.0,1015.00,48.3
2019-03-15 03:10,50.630455,-96.98076,6.8,9.6,308,986.93,-3.4,68,0.79,0.0,1015.05,48.3
2019-03-15 03:20,50.630435,-96.9807583333333,6.5,9.2,304,986.92,-3.6,67,0.79,0.0,1015.06,48.3
2019-03-15 03:30,50.6304583333333,-96.98077,6.9,10.6,300,986.95,-3.8,67,0.79,0.0,1015.11,48.3
2019-03-15 03:40,50.630455,-96.9807683333333,7.1,9.5,300,986.95,-4.0,67,0.79,0.0,1015.12,48.3
2019-03-15 03:50,50.6304533333333,-96.9807683333333,7.5,10.1,305,986.96,-4.0,67,0.80,0.0,1015.14,48.3
2019-03-15 04:00,50.6304533333333,-96.98077,6.7,8.6,305,986.98,-4.2,67,0.80,0.0,1015.17,311.7
2019-03-15 04:10,50.6304533333333,-96.98077,6.6,9.1,300,987.01,-4.3,67,0.79,0.0,1015.21,311.7
2019-03-15 04:20,50.6304383333333,-96.9807666666667,6.6,9.5,301,987.00,-4.4,67,0.79,0.0,1015.22,311.7
2019-03-15 04:30,50.630445,-96.980775,7.0,10.2,299,987.00,-4.5,68,0.79,0.0,1015.23,311.7
2019-03-15 04:40,50.6304466666667,-96.9807733333333,7.6,11.3,298,987.05,-4.5,67,0.79,0.0,1015.28,311.7
2019-03-15 04:50,50.6304383333333,-96.9807616666667,8.0,11.4,299,987.05,-4.5,67,0.79,0.0,1015.29,311.7
2019-03-15 05:00,50.6304466666667,-96.980775,7.2,10.8,297,987.19,-4.5,68,0.79,0.0,1015.45,270.0
2019-03-15 05:10,50.630445,-96.98077,7.1,10.7,300,987.21,-4.6,68,0.80,0.0,1015.49,270.0
2019-03-15 05:20,50.6304383333333,-96.9807733333333,6.8,10.6,300,987.19,-4.6,68,0.80,0.0,1015.47,270.0
2019-03-15 05:30,50.6304466666667,-96.980765,6.8,9.6,294,987.33,-4.6,68,0.79,0.0,1015.63,270.0
2019-03-15 05:40,50.6304466666667,-96.9807683333333,6.2,8.6,291,987.50,-4.8,69,0.79,0.0,1015.82,270.0
2019-03-15 05:50,50.6304466666667,-96.9807716666667,6.2,8.8,290,987.58,-5.1,69,0.79,0.0,1015.92,270.0
2019-03-15 06:00,50.6304466666667,-96.98077,5.9,8.5,297,987.51,-5.1,69,0.79,0.0,1015.86,228.3
2019-03-15 06:10,50.630445,-96.98077,6.5,11.5,286,987.67,-5.2,70,0.79,0.0,1016.03,228.3
2019-03-15 06:20,50.6304233333333,-96.98079,5.4,9.7,280,987.85,-5.3,70,0.79,0.0,1016.22,228.3
2019-03-15 06:30,50.63044,-96.9807716666667,5.6,8.5,299,987.90,-5.2,70,0.79,0.0,1016.27,228.3
2019-03-15 06:40,50.630445,-96.9807666666667,7.8,11.4,307,987.69,-4.6,68,0.79,0.0,1016.02,228.3
2019-03-15 06:50,50.630445,-96.9807666666667,8.1,12.0,309,987.67,-4.3,67,0.79,0.0,1015.99,228.3
2019-03-15 07:00,50.630445,-96.9807666666667,6.8,10.9,301,987.63,-4.3,67,0.80,0.0,1015.95,360.0
2019-03-15 07:10,50.630445,-96.9807666666667,6.9,10.6,308,987.68,-4.3,68,0.80,0.0,1016.01,360.0
2019-03-15 07:20,50.6304466666667,-96.9807666666667,8.8,13.3,308,987.80,-4.0,67,0.79,0.0,1016.11,360.0
2019-03-15 07:30,50.6304483333333,-96.9807666666667,9.2,13.5,312,987.85,-3.6,66,0.79,0.0,1016.16,360.0
2019-03-15 07:40,50.6304483333333,-96.9807683333333,8.2,12.3,311,987.95,-3.6,67,0.79,0.0,1016.27,360.0
2019-03-15 07:50,50.6304683333333,-96.9807666666667,7.2,10.5,301,988.09,-3.7,67,0.79,0.0,1016.42,360.0
2019-03-15 08:00,50.6304666666667,-96.98077,6.7,9.6,291,988.17,-3.9,68,0.79,0.0,1016.51,360.0
2019-03-15 08:10,50.6304633333333,-96.9807683333333,8.1,11.5,305,988.16,-3.8,69,0.78,0.0,1016.51,360.0
2019-03-15 08:20,50.63046,-96.9807683333333,7.3,11.5,306,988.23,-3.7,70,0.78,0.0,1016.57,360.0
2019-03-15 08:30,50.6304583333333,-96.9807666666667,7.1,10.5,300,988.24,-3.7,71,0.78,0.0,1016.55,360.0
2019-03-15 08:40,50.6304566666667,-96.9807683333333,6.9,10.7,309,988.30,-3.5,71,0.79,0.0,1016.58,360.0
2019-03-15 08:50,50.630455,-96.9807683333333,7.8,11.6,311,988.27,-3.4,73,0.79,0.0,1016.55,360.0
2019-03-15 09:00,50.6304433333333,-96.9807883333333,8.4,13.9,314,988.30,-3.4,77,0.78,0.0,1016.57,252.3
2019-03-15 09:10,50.6304483333333,-96.98076,8.7,15.3,318,988.33,-3.4,80,0.78,0.0,1016.60,252.3
2019-03-15 09:20,50.6304516666667,-96.98075,8.1,12.8,320,988.43,-3.4,80,0.78,0.0,1016.68,252.3
2019-03-15 09:30,50.6304516666667,-96.9807633333333,8.8,13.7,317,988.48,-3.4,81,0.78,0.0,1016.73,252.3
2019-03-15 09:40,50.630465,-96.9808116666667,10.5,15.2,318,988.49,-3.4,80,0.78,0.0,1016.74,252.3
2019-03-15 09:50,50.6304483333333,-96.9807733333333,10.2,16.2,321,988.65,-3.4,80,0.78,0.0,1016.92,252.3
2019-03-15 10:00,50.6304483333333,-96.9807716666667,12.2,18.2,330,988.77,-3.5,79,0.78,0.0,1017.05,347.4
2019-03-15 10:10,50.63045,-96.98077,11.9,19.7,331,988.89,-3.6,79,0.78,0.0,1017.17,347.4
2019-03-15 10:20,50.6304516666667,-96.9807683333333,14.0,21.1,336,989.01,-3.7,80,0.78,0.0,1017.29,347.4
2019-03-15 10:30,50.6304516666667,-96.9807683333333,11.9,17.5,338,989.20,-3.9,83,0.78,0.0,1017.49,347.4
2019-03-15 10:40,50.630455,-96.9807533333333,11.2,16.5,328,989.29,-4.0,84,0.78,0.0,1017.58,347.4
2019-03-15 10:50,50.630455,-96.9807716666667,9.2,15.4,324,989.46,-4.1,85,0.78,0.0,1017.76,347.4
2019-03-15 11:00,50.6304566666667,-96.9807716666667,9.6,13.6,316,989.53,-4.1,84,0.78,0.0,1017.84,360.0
2019-03-15 11:10,50.6304566666667,-96.9807716666667,9.2,12.9,316,989.63,-4.1,84,0.77,0.0,1017.93,360.0
2019-03-15 11:20,50.6304466666667,-96.980765,7.5,11.6,311,989.81,-4.2,85,0.77,0.0,1018.12,360.0
2019-03-15 11:30,50.6304516666667,-96.98077,7.7,11.1,299,989.96,-4.4,87,0.78,0.0,1018.29,360.0
2019-03-15 11:40,50.6304516666667,-96.98077,9.1,13.8,301,990.02,-4.6,91,0.78,0.0,1018.37,360.0
2019-03-15 11:50,50.6304533333333,-96.9807666666667,7.7,12.4,299,990.10,-4.8,93,0.78,0.0,1018.46,360.0
2019-03-15 12:00,50.630455,-96.9807683333333,7.8,12.4,296,990.17,-5.0,94,0.78,0.0,1018.55,57.7
2019-03-15 12:10,50.6304566666667,-96.980765,7.7,12.2,304,990.30,-5.2,90,0.77,0.0,1018.70,57.7
2019-03-15 12:20,50.6304533333333,-96.9807683333333,9.0,14.2,307,990.37,-5.3,86,0.77,0.0,1018.79,57.7
2019-03-15 12:30,50.63045,-96.9807733333333,8.6,12.4,308,990.51,-5.5,82,0.77,0.0,1018.94,57.7
2019-03-15 12:40,50.6304466666667,-96.980765,8.9,13.1,304,990.63,-5.6,81,0.77,0.0,1019.09,57.7
2019-03-15 12:50,50.6304466666667,-96.980765,9.2,14.2,305,990.75,-5.7,80,0.77,0.0,1019.21,57.7
2019-03-15 13:00,50.6304483333333,-96.9807616666667,7.7,10.9,301,990.93,-5.8,79,0.77,0.0,1019.40,90.0
2019-03-15 13:10,50.6304483333333,-96.9807616666667,7.4,10.7,297,991.00,-5.9,78,0.77,0.0,1019.49,90.0
2019-03-15 13:20,50.6304483333333,-96.9807633333333,6.1,9.1,299,991.12,-5.9,77,0.78,0.0,1019.62,90.0
2019-03-15 13:30,50.6304483333333,-96.9807633333333,7.3,11.4,303,991.12,-5.8,75,0.77,0.0,1019.62,90.0
2019-03-15 13:40,50.6304466666667,-96.9807616666667,6.7,10.0,308,991.23,-5.6,73,0.77,0.0,1019.74,90.0
2019-03-15 13:50,50.6304466666667,-96.9807616666667,7.7,10.4,308,991.34,-5.3,71,0.77,0.0,1019.84,90.0
2019-03-15 14:00,50.6304466666667,-96.9807616666667,8.8,13.6,313,991.35,-5.0,71,0.77,0.0,1019.85,119.2
2019-03-15 14:10,50.6304466666667,-96.9807616666667,9.5,15.8,316,991.45,-4.8,71,0.77,0.0,1019.95,119.2
2019-03-15 14:20,50.6304466666667,-96.9807633333333,9.0,13.0,316,991.63,-4.7,71,0.77,0.0,1020.14,119.2
2019-03-15 14:30,50.630445,-96.9807633333333,8.8,13.1,315,991.75,-4.7,71,0.77,0.0,1020.27,119.2
2019-03-15 14:40,50.630445,-96.9807616666667,10.1,14.2,310,991.77,-4.7,72,0.77,0.0,1020.29,119.2
2019-03-15 14:50,50.630445,-96.9807633333333,9.1,13.7,308,991.93,-4.6,74,0.77,0.0,1020.46,119.2
2019-03-15 15:00,50.630445,-96.9807633333333,10.1,14.5,313,991.95,-4.5,75,0.77,0.0,1020.48,360.0
2019-03-15 15:10,50.630445,-96.9807633333333,9.6,14.4,310,992.03,-4.4,76,0.77,0.0,1020.55,360.0
2019-03-15 15:20,50.630445,-96.9807633333333,9.4,14.3,312,992.10,-4.3,77,0.76,0.0,1020.62,360.0
2019-03-15 15:30,50.630445,-96.9807633333333,8.9,12.3,313,992.22,-4.3,77,0.77,0.0,1020.72,360.0
2019-03-15 15:40,50.630445,-96.9807633333333,8.8,13.2,317,992.27,-4.2,78,0.77,0.0,1020.76,360.0
2019-03-15 15:50,50.630445,-96.980765,8.8,12.8,318,992.34,-4.2,78,0.77,0.0,1020.81,360.0
2019-03-15 16:00,50.630445,-96.980765,8.3,12.6,319,992.38,-4.1,79,0.77,0.0,1020.84,192.6
2019-03-15 16:10,50.6304466666667,-96.980765,7.9,11.3,315,992.46,-4.0,79,0.77,0.0,1020.92,192.6
2019-03-15 16:20,50.6304766666667,-96.9807766666667,8.6,12.8,306,992.49,-4.0,79,0.77,0.0,1020.94,192.6
2019-03-15 16:30,50.63045,-96.9807683333333,7.9,12.8,309,992.58,-3.8,78,0.77,0.0,1021.03,192.6
2019-03-15 16:40,50.63045,-96.98077,9.0,13.0,306,992.57,-3.7,75,0.77,0.0,1021.00,192.6
2019-03-15 16:50,50.63045,-96.980775,10.0,14.4,311,992.56,-3.7,74,0.77,0.0,1020.99,192.6
2019-03-15 17:00,50.63045,-96.9807733333333,9.9,16.0,297,992.64,-3.7,74,0.77,0.0,1021.07,305.3
2019-03-15 17:10,50.63045,-96.9807716666667,10.4,14.5,299,992.73,-3.7,73,0.77,0.0,1021.16,305.3
2019-03-15 17:20,50.6304516666667,-96.98077,12.3,18.7,308,992.63,-3.7,71,0.78,0.0,1021.05,305.3
2019-03-15 17:30,50.6304516666667,-96.9807683333333,10.9,15.7,308,992.70,-3.6,71,0.78,0.0,1021.11,305.3
2019-03-15 17:40,50.63045,-96.9807683333333,11.5,17.0,316,992.73,-3.5,69,0.78,0.0,1021.13,305.3
2019-03-15 17:50,50.6304166666667,-96.980755,10.8,16.5,314,992.83,-3.4,68,0.78,0.0,1021.23,305.3
2019-03-15 18:00,50.6304366666667,-96.9807533333333,11.8,17.3,318,992.85,-3.5,65,0.78,0.0,1021.25,119.2
2019-03-15 18:10,50.6304416666667,-96.9807566666667,12.6,19.5,313,992.79,-3.6,62,0.78,0.0,1021.19,119.2
2019-03-15 18:20,50.6304416666667,-96.9807583333333,12.4,18.1,318,992.84,-3.5,60,0.78,0.0,1021.23,119.2
2019-03-15 18:30,50.6304433333333,-96.98076,11.7,16.5,319,992.91,-3.5,59,0.78,0.0,1021.29,119.2
2019-03-15 18:40,50.630445,-96.9807616666667,12.2,19.6,318,992.91,-3.5,58,0.78,0.0,1021.29,119.2
2019-03-15 18:50,50.630445,-96.9807616666667,12.5,17.6,327,992.94,-3.4,58,0.79,0.0,1021.32,119.2
2019-03-15 19:00,50.630445,-96.98076,12.6,20.8,318,992.92,-3.3,57,0.79,0.0,1021.29,90.0
2019-03-15 19:10,50.630445,-96.98076,11.9,18.1,322,993.03,-3.3,57,0.79,0.0,1021.40,90.0
2019-03-15 19:20,50.6304466666667,-96.98076,11.1,17.3,317,993.06,-3.3,57,0.79,0.0,1021.44,90.0
2019-03-15 19:30,50.6304483333333,-96.9807616666667,11.4,17.5,314,993.06,-3.3,58,0.79,0.0,1021.43,90.0
2019-03-15 19:40,50.6304483333333,-96.9807616666667,11.2,15.7,325,993.09,-3.2,57,0.79,0.0,1021.45,90.0
2019-03-15 19:50,50.630455,-96.98075,10.9,16.6,321,993.11,-3.1,57,0.79,0.0,1021.47,90.0
2019-03-15 20:00,50.630445,-96.98077,10.0,14.6,314,993.20,-3.2,59,0.79,0.0,1021.57,360.0
2019-03-15 20:10,50.6304483333333,-96.9807666666667,9.7,15.5,305,993.20,-3.2,59,0.79,0.0,1021.57,360.0
2019-03-15 20:20,50.6304466666667,-96.9807683333333,9.2,14.9,311,993.25,-2.6,57,0.80,0.0,1021.58,360.0
2019-03-15 20:30,50.6304466666667,-96.9807683333333,9.4,14.0,289,993.26,-2.8,58,0.80,0.0,1021.61,360.0
2019-03-15 20:40,50.6304466666667,-96.980765,9.4,13.4,303,993.31,-3.0,58,0.80,0.0,1021.67,360.0
2019-03-15 20:50,50.6304466666667,-96.980765,10.4,15.1,301,993.34,-3.1,58,0.80,0.0,1021.69,360.0
2019-03-15 21:00,50.6304466666667,-96.980765,9.4,13.1,306,993.51,-3.1,59,0.81,0.0,1021.87,323.4
2019-03-15 21:10,50.6304466666667,-96.980765,10.9,17.1,306,993.58,-2.9,57,0.81,0.0,1021.93,323.4
2019-03-15 21:20,50.6304466666667,-96.9807633333333,9.0,13.3,297,993.78,-2.7,57,0.81,0.0,1022.13,323.4
2019-03-15 21:30,50.63048,-96.9807733333333,9.6,14.3,303,993.80,-3.0,57,0.81,0.0,1022.15,323.4
2019-03-15 21:40,50.6304466666667,-96.98077,9.1,15.2,316,993.84,-2.6,55,0.82,0.0,1022.17,323.4
2019-03-15 21:50,50.6304466666667,-96.9807683333333,9.7,16.2,299,993.87,-2.5,54,0.82,0.0,1022.20,323.4
2019-03-15 22:00,50.630445,-96.98077,10.2,14.4,324,993.89,-2.6,53,0.82,0.0,1022.23,270.0
2019-03-15 22:10,50.63044,-96.98076,10.8,15.7,317,993.94,-2.6,52,0.82,0.0,1022.25,270.0
2019-03-15 22:20,50.6304416666667,-96.980765,10.6,15.0,325,994.11,-2.6,52,0.83,0.0,1022.44,270.0
2019-03-15 22:30,50.6304466666667,-96.9807683333333,10.9,15.8,323,994.19,-2.8,52,0.83,0.0,1022.53,270.0
2019-03-15 22:40,50.630445,-96.9807683333333,9.9,15.4,322,994.32,-2.8,52,0.83,0.0,1022.68,270.0
2019-03-15 22:50,50.630445,-96.9807666666667,9.3,13.0,325,994.51,-2.8,52,0.83,0.0,1022.87,270.0
2019-03-15 23:00,50.6304433333333,-96.9807666666667,9.1,12.8,319,994.60,-2.9,51,0.84,0.0,1022.96,0.0
2019-03-15 23:10,50.630445,-96.9807666666667,9.4,13.8,322,994.73,-3.1,52,0.84,0.0,1023.09,0.0
2019-03-15 23:20,50.6304466666667,-96.9807683333333,9.4,13.6,324,994.83,-3.3,51,0.84,0.0,1023.22,0.0
2019-03-15 23:30,50.6304466666667,-96.98077,9.1,14.5,328,994.87,-3.5,50,0.84,0.0,1023.24,0.0
2019-03-15 23:40,50.6304466666667,-96.9807716666667,9.3,13.9,327,994.94,-3.7,50,0.84,0.0,1023.32,0.0
